| time (UTC) | temp F | wind direction | speed MPH | gust MPH | rain 1hr in | rain 24hr in | rain mn in | humidity % | barometer mb |
| 20260901154532 | 70 | 319 | 3.0 | 6.0 | 0.00 | 0.00 | 0.00 | 52 | 1019.3 |
| 20260901153534 | 70 | 214 | 1.0 | 3.0 | 0.00 | 0.00 | 0.00 | 51 | 1019.3 |
| 20260901152533 | 71 | 0 | 1.0 | 4.0 | 0.00 | 0.00 | 0.00 | 52 | 1019.4 |
| 20260901151531 | 71 | 334 | 1.0 | 6.0 | 0.00 | 0.00 | 0.00 | 52 | 1019.4 |
| 20260901150533 | 71 | 272 | 1.0 | 4.0 | 0.00 | 0.00 | 0.00 | 52 | 1019.2 |
| 20260901145531 | 70 | 296 | 2.0 | 5.0 | 0.00 | 0.00 | 0.00 | 51 | 1019.3 |
| 20260901144532 | 70 | 313 | 2.0 | 4.0 | 0.00 | 0.00 | 0.00 | 51 | 1019.3 |
| 20260901144013 | 71 | 353 | 2.0 | 5.0 | 0.00 | 0.00 | 0.00 | 50 | 1019.5 |
| 20260901142531 | 71 | 255 | 2.0 | 6.0 | 0.00 | 0.00 | 0.00 | 49 | 1019.6 |
| 20260901141530 | 72 | 1 | 2.0 | 5.0 | 0.00 | 0.00 | 0.00 | 48 | 1019.5 |
| 20260901140532 | 72 | 171 | 1.0 | 6.0 | 0.00 | 0.04 | 0.00 | 47 | 1019.5 |
| 20260901135530 | 74 | 265 | 6.0 | 9.0 | 0.00 | 0.06 | 0.00 | 46 | 1019.6 |
| 20260901135007 | 74 | 145 | 2.0 | 6.0 | 0.00 | 0.06 | 0.00 | 48 | 1019.5 |
| 20260901133530 | 72 | 144 | 1.0 | 6.0 | 0.00 | 0.06 | 0.00 | 49 | 1019.5 |
| 20260901132530 | 72 | 152 | 4.0 | 6.0 | 0.00 | 0.06 | 0.00 | 49 | 1019.6 |
| 20260901131530 | 72 | 241 | 2.0 | 5.0 | 0.00 | 0.06 | 0.00 | 50 | 1019.6 |
| 20260901130530 | 71 | 202 | 3.0 | 6.0 | 0.00 | 0.06 | 0.00 | 49 | 1019.8 |
| 20260901125531 | 71 | 147 | 2.0 | 7.0 | 0.00 | 0.06 | 0.00 | 49 | 1019.7 |
| 20260901124528 | 73 | 182 | 2.0 | 6.0 | 0.00 | 0.06 | 0.00 | 47 | 1019.7 |
| 20260901123529 | 71 | 292 | 3.0 | 5.0 | 0.00 | 0.06 | 0.00 | 49 | 1019.8 |
| 20260901122530 | 72 | 175 | 0.0 | 6.0 | 0.00 | 0.06 | 0.00 | 48 | 1019.9 |
| 20260901122008 | 72 | 227 | 4.0 | 7.0 | 0.00 | 0.06 | 0.00 | 47 | 1020.1 |
| 20260901120528 | 72 | 230 | 2.0 | 5.0 | 0.00 | 0.06 | 0.00 | 50 | 1020.0 |
| 20260901120010 | 71 | 209 | 1.0 | 7.0 | 0.00 | 0.06 | 0.00 | 51 | 1020.1 |
| 20260901114527 | 69 | 221 | 2.0 | 4.0 | 0.00 | 0.06 | 0.00 | 52 | 1020.0 |
| 20260901114011 | 70 | 306 | 4.0 | 7.0 | 0.00 | 0.06 | 0.00 | 50 | 1020.1 |
| 20260901112529 | 70 | 238 | 2.0 | 5.0 | 0.00 | 0.06 | 0.00 | 51 | 1020.2 |
| 20260901111530 | 69 | 220 | 1.0 | 5.0 | 0.00 | 0.06 | 0.00 | 52 | 1020.2 |
| 20260901110529 | 69 | 238 | 5.0 | 9.0 | 0.00 | 0.06 | 0.00 | 52 | 1020.2 |
| 20260901105528 | 68 | 231 | 2.0 | 6.0 | 0.00 | 0.06 | 0.00 | 52 | 1020.2 |
| 20260901104528 | 68 | 303 | 3.0 | 6.0 | 0.00 | 0.06 | 0.00 | 51 | 1020.3 |
| 20260901103528 | 68 | 155 | 2.0 | 5.0 | 0.00 | 0.06 | 0.00 | 53 | 1020.2 |
| 20260901102527 | 68 | 175 | 2.0 | 4.0 | 0.00 | 0.06 | 0.00 | 53 | 1020.2 |
| 20260901101527 | 68 | 135 | 2.0 | 5.0 | 0.00 | 0.06 | 0.00 | 53 | 1020.4 |
| 20260901100527 | 67 | 171 | 3.0 | 6.0 | 0.00 | 0.06 | 0.00 | 54 | 1020.5 |
| 20260901095526 | 67 | 262 | 3.0 | 5.0 | 0.00 | 0.06 | 0.00 | 55 | 1020.6 |
| 20260901094525 | 66 | 276 | 1.0 | 4.0 | 0.00 | 0.06 | 0.00 | 58 | 1020.7 |
| 20260901093525 | 66 | 288 | 1.0 | 4.0 | 0.00 | 0.06 | 0.00 | 60 | 1020.7 |
| 20260901092525 | 66 | 168 | 2.0 | 6.0 | 0.00 | 0.06 | 0.00 | 61 | 1020.7 |
| 20260901092437 | 65 | 245 | 2.0 | 5.0 | 0.00 | 0.06 | 0.00 | 65 | 1020.9 |
| 20260901090525 | 65 | 248 | 1.0 | 3.0 | 0.00 | 0.06 | 0.00 | 65 | 1020.7 |
| 20260901085525 | 64 | 245 | 1.0 | 4.0 | 0.00 | 0.06 | 0.00 | 67 | 1020.8 |
| 20260901085005 | 63 | 213 | 1.0 | 4.0 | 0.00 | 0.06 | 0.00 | 71 | 1020.6 |
| 20260901083524 | 62 | 241 | 2.0 | 3.0 | 0.00 | 0.06 | 0.00 | 74 | 1020.6 |
| 20260901083005 | 61 | 204 | 2.0 | 3.0 | 0.00 | 0.06 | 0.00 | 75 | 1020.6 |
| 20260901081524 | 60 | 200 | 0.0 | 4.0 | 0.00 | 0.06 | 0.00 | 78 | 1020.5 |
| 20260901080523 | 59 | 212 | 1.0 | 3.0 | 0.00 | 0.06 | 0.00 | 79 | 1020.4 |
| 20260901075523 | 57 | 251 | 1.0 | 3.0 | 0.00 | 0.06 | 0.00 | 84 | 1020.3 |
| 20260901074522 | 56 | 228 | 1.0 | 2.0 | 0.00 | 0.06 | 0.00 | 85 | 1020.3 |
| 20260901073522 | 55 | 233 | 1.0 | 2.0 | 0.00 | 0.06 | 0.00 | 87 | 1020.3 |
| 20260901073008 | 54 | 233 | 1.0 | 2.0 | 0.00 | 0.06 | 0.00 | 88 | 1020.3 |
| 20260901071523 | 54 | 233 | 0.0 | 2.0 | 0.00 | 0.06 | 0.00 | 88 | 1020.3 |
| 20260901070522 | 53 | 231 | 0.0 | 4.0 | 0.00 | 0.06 | 0.00 | 89 | 1020.3 |
| 20260901065958 | 53 | 247 | 1.0 | 2.0 | 0.00 | 0.06 | 0.00 | 89 | 1020.2 |
| 20260901064523 | 53 | 233 | 0.0 | 1.0 | 0.00 | 0.06 | 0.00 | 89 | 1020.2 |
| 20260901063953 | 53 | 233 | 1.0 | 1.0 | 0.00 | 0.06 | 0.00 | 89 | 1020.1 |
| 20260901063004 | 52 | 235 | 0.0 | 1.0 | 0.00 | 0.06 | 0.00 | 89 | 1020.0 |
| 20260901061520 | 52 | 234 | 0.0 | 0.0 | 0.00 | 0.06 | 0.00 | 89 | 1020.1 |
| 20260901060520 | 52 | 231 | 0.0 | 1.0 | 0.00 | 0.06 | 0.00 | 89 | 1019.9 |
| 20260901055520 | 52 | 231 | 0.0 | 2.0 | 0.00 | 0.06 | 0.00 | 89 | 1019.9 |
| 20260901054520 | 52 | 231 | 0.0 | 1.0 | 0.00 | 0.06 | 0.00 | 89 | 1019.8 |
| 20260901053520 | 52 | 231 | 0.0 | 1.0 | 0.00 | 0.06 | 0.00 | 89 | 1019.8 |
| 20260901052519 | 52 | 231 | 0.0 | 2.0 | 0.00 | 0.06 | 0.00 | 89 | 1019.7 |
| 20260901052435 | 52 | 231 | 0.0 | 1.0 | 0.00 | 0.06 | 0.00 | 89 | 1019.6 |
| 20260901050519 | 52 | 231 | 1.0 | 2.0 | 0.00 | 0.06 | 0.00 | 89 | 1019.4 |
| 20260901045518 | 52 | 230 | 1.0 | 3.0 | 0.00 | 0.06 | 0.00 | 89 | 1019.4 |
| 20260901044519 | 52 | 264 | 1.0 | 2.0 | 0.00 | 0.06 | 0.00 | 89 | 1019.4 |
| 20260901043519 | 52 | 265 | 0.0 | 1.0 | 0.00 | 0.06 | 0.00 | 88 | 1019.3 |
| 20260901042520 | 52 | 265 | 0.0 | 0.0 | 0.00 | 0.06 | 0.00 | 88 | 1019.4 |
| 20260901041519 | 52 | 265 | 0.0 | 0.0 | 0.00 | 0.06 | 0.00 | 88 | 1019.2 |
| 20260901041002 | 52 | 265 | 0.0 | 0.0 | 0.00 | 0.06 | 0.00 | 87 | 1019.2 |
| 20260901035520 | 53 | 265 | 0.0 | 0.0 | 0.00 | 0.06 | 0.00 | 87 | 1019.2 |
| 20260901034519 | 53 | 265 | 1.0 | 2.0 | 0.00 | 0.06 | 0.00 | 87 | 1019.2 |
| 20260901033519 | 53 | 265 | 0.0 | 2.0 | 0.00 | 0.06 | 0.00 | 87 | 1019.2 |
| 20260901033442 | 53 | 265 | 0.0 | 1.0 | 0.00 | 0.06 | 0.00 | 87 | 1019.2 |
| 20260901031518 | 53 | 265 | 1.0 | 2.0 | 0.00 | 0.06 | 0.00 | 87 | 1019.1 |
| 20260901030520 | 53 | 265 | 0.0 | 1.0 | 0.00 | 0.06 | 0.00 | 87 | 1019.0 |
| 20260901025519 | 53 | 265 | 0.0 | 1.0 | 0.00 | 0.06 | 0.00 | 86 | 1019.0 |
| 20260901024517 | 54 | 265 | 0.0 | 1.0 | 0.00 | 0.06 | 0.00 | 86 | 1019.0 |
| 20260901023516 | 54 | 265 | 0.0 | 1.0 | 0.00 | 0.06 | 0.00 | 85 | 1019.0 |
| 20260901022515 | 54 | 265 | 0.0 | 0.0 | 0.00 | 0.06 | 0.00 | 85 | 1019.1 |
| 20260901021953 | 54 | 265 | 0.0 | 1.0 | 0.00 | 0.06 | 0.00 | 85 | 1019.1 |
| 20260901020515 | 54 | 265 | 0.0 | 1.0 | 0.00 | 0.06 | 0.00 | 85 | 1019.1 |
| 20260901015953 | 55 | 265 | 0.0 | 1.0 | 0.00 | 0.06 | 0.00 | 84 | 1019.1 |
| 20260901014515 | 55 | 265 | 0.0 | 1.0 | 0.00 | 0.06 | 0.00 | 84 | 1019.1 |
| 20260901013514 | 55 | 265 | 0.0 | 1.0 | 0.00 | 0.06 | 0.00 | 84 | 1019.2 |
| 20260901012515 | 55 | 265 | 0.0 | 2.0 | 0.00 | 0.06 | 0.00 | 84 | 1019.1 |
| 20260901011514 | 56 | 265 | 0.0 | 1.0 | 0.00 | 0.06 | 0.00 | 83 | 1019.1 |
| 20260901010515 | 56 | 265 | 0.0 | 0.0 | 0.00 | 0.06 | 0.00 | 83 | 1019.0 |
| 20260901005513 | 56 | 265 | 0.0 | 1.0 | 0.00 | 0.06 | 0.00 | 82 | 1019.0 |
| 20260901004513 | 56 | 265 | 0.0 | 1.0 | 0.00 | 0.06 | 0.00 | 82 | 1019.1 |
| 20260901003514 | 56 | 266 | 0.0 | 1.0 | 0.00 | 0.06 | 0.00 | 81 | 1019.0 |
| 20260901002513 | 57 | 266 | 0.0 | 1.0 | 0.00 | 0.06 | 0.00 | 81 | 1018.9 |
| 20260901001512 | 57 | 266 | 0.0 | 1.0 | 0.00 | 0.06 | 0.00 | 80 | 1018.9 |
| 20260901000513 | 58 | 266 | 0.0 | 1.0 | 0.00 | 0.06 | 0.00 | 79 | 1018.9 |
| 20260831235514 | 58 | 266 | 0.0 | 1.0 | 0.00 | 0.06 | 0.00 | 79 | 1018.8 |
| 20260831234514 | 58 | 266 | 1.0 | 2.0 | 0.00 | 0.06 | 0.00 | 79 | 1018.8 |
| 20260831233513 | 58 | 265 | 0.0 | 2.0 | 0.00 | 0.06 | 0.00 | 79 | 1018.7 |
| 20260831233434 | 58 | 265 | 0.0 | 2.0 | 0.00 | 0.06 | 0.00 | 79 | 1018.7 |
| 20260831231507 | 58 | 264 | 2.0 | 3.0 | 0.00 | 0.06 | 0.00 | 79 | 1018.6 |
| 20260831230504 | 59 | 275 | 0.0 | 1.0 | 0.00 | 0.06 | 0.00 | 78 | 1018.7 |
| 20260831225503 | 59 | 275 | 1.0 | 2.0 | 0.00 | 0.06 | 0.06 | 78 | 1018.6 |
| 20260831224502 | 59 | 286 | 0.0 | 3.0 | 0.00 | 0.06 | 0.06 | 78 | 1018.6 |
| 20260831223946 | 59 | 264 | 0.0 | 1.0 | 0.00 | 0.06 | 0.06 | 79 | 1018.6 |
| 20260831222503 | 59 | 279 | 0.0 | 1.0 | 0.00 | 0.06 | 0.06 | 79 | 1018.5 |
| 20260831221502 | 59 | 279 | 0.0 | 1.0 | 0.00 | 0.06 | 0.06 | 78 | 1018.4 |
| 20260831220502 | 59 | 279 | 0.0 | 2.0 | 0.00 | 0.06 | 0.06 | 77 | 1018.4 |
| 20260831215503 | 60 | 279 | 1.0 | 1.0 | 0.00 | 0.06 | 0.06 | 76 | 1018.3 |
| 20260831214504 | 60 | 279 | 0.0 | 1.0 | 0.00 | 0.06 | 0.06 | 76 | 1018.3 |
| 20260831213503 | 60 | 279 | 0.0 | 1.0 | 0.00 | 0.07 | 0.06 | 75 | 1018.2 |
| 20260831212502 | 61 | 279 | 0.0 | 2.0 | 0.00 | 0.07 | 0.06 | 74 | 1018.1 |
| 20260831211502 | 61 | 278 | 1.0 | 2.0 | 0.00 | 0.08 | 0.06 | 73 | 1018.0 |
| 20260831210504 | 61 | 327 | 0.0 | 5.0 | 0.00 | 0.08 | 0.06 | 73 | 1017.8 |
| 20260831205503 | 62 | 226 | 3.0 | 4.0 | 0.00 | 0.09 | 0.06 | 73 | 1017.9 |
| 20260831204504 | 62 | 329 | 0.0 | 3.0 | 0.00 | 0.09 | 0.06 | 73 | 1017.7 |
| 20260831203504 | 62 | 303 | 0.0 | 2.0 | 0.00 | 0.09 | 0.06 | 73 | 1017.6 |
| 20260831202504 | 62 | 281 | 0.0 | 2.0 | 0.00 | 0.09 | 0.06 | 72 | 1017.5 |
| 20260831201504 | 62 | 279 | 0.0 | 3.0 | 0.00 | 0.09 | 0.06 | 72 | 1017.4 |
| 20260831200504 | 63 | 269 | 2.0 | 4.0 | 0.00 | 0.09 | 0.06 | 72 | 1017.2 |
| 20260831195505 | 63 | 312 | 1.0 | 4.0 | 0.00 | 0.09 | 0.06 | 71 | 1017.1 |
| 20260831194502 | 63 | 290 | 0.0 | 1.0 | 0.00 | 0.09 | 0.06 | 71 | 1016.9 |
| 20260831193502 | 64 | 285 | 1.0 | 2.0 | 0.00 | 0.09 | 0.06 | 71 | 1016.8 |
| 20260831192503 | 64 | 283 | 1.0 | 3.0 | 0.00 | 0.09 | 0.06 | 69 | 1016.6 |
| 20260831191502 | 64 | 258 | 1.0 | 2.0 | 0.00 | 0.09 | 0.06 | 70 | 1016.5 |
| 20260831190503 | 65 | 264 | 1.0 | 3.0 | 0.00 | 0.09 | 0.06 | 69 | 1016.4 |
| 20260831185503 | 65 | 296 | 1.0 | 4.0 | 0.00 | 0.09 | 0.06 | 69 | 1016.3 |
| 20260831184503 | 66 | 289 | 1.0 | 4.0 | 0.00 | 0.09 | 0.06 | 69 | 1016.1 |
| 20260831183503 | 66 | 254 | 2.0 | 5.0 | 0.00 | 0.09 | 0.06 | 70 | 1016.0 |
| 20260831182940 | 67 | 258 | 1.0 | 6.0 | 0.00 | 0.09 | 0.06 | 72 | 1015.8 |
| 20260831181503 | 67 | 0 | 3.0 | 5.0 | 0.00 | 0.09 | 0.06 | 74 | 1015.6 |
| 20260831180502 | 67 | 336 | 0.0 | 3.0 | 0.00 | 0.09 | 0.06 | 75 | 1015.4 |
| 20260831175501 | 67 | 264 | 0.0 | 3.0 | 0.00 | 0.09 | 0.06 | 76 | 1015.2 |
| 20260831175433 | 67 | 271 | 1.0 | 3.0 | 0.00 | 0.09 | 0.06 | 76 | 1015.0 |
| 20260831173502 | 67 | 247 | 1.0 | 2.0 | 0.00 | 0.09 | 0.06 | 76 | 1015.0 |
| 20260831172504 | 67 | 275 | 1.0 | 2.0 | 0.00 | 0.09 | 0.06 | 76 | 1014.8 |
| 20260831171502 | 67 | 275 | 1.0 | 3.0 | 0.00 | 0.09 | 0.06 | 76 | 1014.7 |
| 20260831170502 | 67 | 278 | 1.0 | 2.0 | 0.00 | 0.09 | 0.06 | 76 | 1014.7 |
| 20260831165502 | 67 | 196 | 0.0 | 2.0 | 0.00 | 0.09 | 0.06 | 77 | 1014.7 |
| 20260831164504 | 67 | 190 | 0.0 | 2.0 | 0.00 | 0.09 | 0.06 | 76 | 1014.5 |
| 20260831163505 | 67 | 183 | 0.0 | 2.0 | 0.00 | 0.09 | 0.06 | 76 | 1014.4 |
| 20260831163421 | 67 | 282 | 1.0 | 2.0 | 0.00 | 0.09 | 0.06 | 77 | 1014.4 |
| 20260831161504 | 66 | 290 | 0.0 | 2.0 | 0.00 | 0.09 | 0.06 | 78 | 1014.3 |
| 20260831160503 | 66 | 298 | 1.0 | 3.0 | 0.00 | 0.09 | 0.06 | 78 | 1014.3 |
| 20260831155504 | 66 | 307 | 0.0 | 3.0 | 0.00 | 0.09 | 0.06 | 79 | 1014.2 |